Nur fliegen ist schöner ....

Willkommen beim Flugservice Bautzen GmbH

Wir sind eine nach europäischen Richtlinien zugelassene Flugschule und lizenziertes Luftfahrtunternehmen. Bei uns können sie nicht nur Rundflüge über die Oberlausitz oder Sachsen buchen, sondern in unserer Flugschule selber das Fliegen erlernen. Erfahrene Fluglehrer stehen ihnen dabei zur Seite.

Wir bieten Ihnen außerdem spezielle Flüge zur Vermessung oder Fotoflüge für Luftbildaufnahmen an. In Zusammenarbeit mit dem Fallschirmsportclub Dresden und dem Cottbuser Fallschirmsportclub setzen wir am Flugplatz Bautzen und Neuhausen Fallschirmspringer ab.
Schauen sie sich in Ruhe bei uns um und wenn sie Fragen haben oder weitere Informationen benötigen, scheuen sie sich nicht Kontakt mit uns aufzunehmen.

Rundflüge können sie ganz leicht auch online in unserem Shop buchen.

Terminkalender

Letzter Monat Dezember 2018 Nächster Monat
Mo Di Mi Do Fr Sa So
week 48 1 2
week 49 3 4 5 6 7 8 9
week 50 10 11 12 13 14 15 16
week 51 17 18 19 20 21 22 23
week 52 24 25 26 27 28 29 30
week 1 31

Flugwetterinfo

[Quelle: ADDS]
METAR
EDDC 182320Z 15009KT CAVOK 02/00 Q1021 R04/19//95 =
EDDC 182300Z 1900/1924 14012KT CAVOK BECMG 1900/1903 15015G25KT BECMG 1921/1924 16010KT
TAF
EDDC 182300Z 1900/1924 14012KT CAVOK BECMG 1900/1903 15015G25KT BECMG 1921/1924 16010KT =
SR / SS: 07:02 / 14:55 UTC (EDAB Flugplatz Bautzen 2018-12-19)
Flugservice Bautzen GmbH, Kornmarkt 34, 02625 Bautzen  Telefon: +49 (3591) 211105, Telefax: +49 (3591) 274512, E-Mail:  flugservice(at)fsbautzen.de